EB5ETD Weather Reports


Display with metric or nautical units.
time (UTC)temp
F
wind
direction
speed
MPH
gust
MPH
rain 1hr
in
rain 24hr
in
rain mn
in
humidity
%
barometer
mb
20260505051004 52 229 0.0 1.0 0.00 0.07 0.00 73 1020.9
20260505050503 52 229 0.0 2.0 0.00 0.07 0.00 73 1020.8
20260505041504 53 243 1.0 5.0 0.00 0.07 0.00 68 1020.8
20260505041004 54 265 1.0 1.0 0.00 0.07 0.00 67 1020.6
20260505040504 53 265 1.0 1.0 0.00 0.07 0.00 68 1020.8
20260505040005 53 265 1.0 2.0 0.00 0.07 0.00 70 1020.7
20260505035005 52 264 0.0 2.0 0.00 0.07 0.00 74 1021.0
20260505034504 53 263 1.0 2.0 0.00 0.07 0.00 75 1021.0
20260505034004 53 242 0.0 1.0 0.00 0.07 0.00 75 1021.1
20260505033504 53 242 0.0 2.0 0.00 0.07 0.00 75 1020.9
20260505033003 53 274 1.0 1.0 0.00 0.07 0.00 75 1020.9
20260505032504 53 15 0.0 1.0 0.00 0.07 0.00 75 1020.8
20260505032004 53 15 0.0 1.0 0.00 0.07 0.00 75 1020.9
20260505030504 53 15 1.0 1.0 0.00 0.07 0.00 76 1020.9
20260505030004 53 253 0.0 1.0 0.00 0.07 0.00 75 1020.9
20260505025504 53 349 0.0 1.0 0.00 0.07 0.00 75 1021.0
20260505025004 53 1 1.0 2.0 0.00 0.07 0.00 74 1020.9
20260505024503 54 258 0.0 1.0 0.00 0.07 0.00 74 1020.8
20260505024003 54 258 0.0 1.0 0.00 0.07 0.00 74 1020.9
20260505023504 54 258 1.0 2.0 0.00 0.07 0.00 74 1020.8
20260505023004 54 258 2.0 2.0 0.00 0.07 0.00 73 1020.8
20260505022504 53 240 1.0 2.0 0.00 0.07 0.00 76 1020.9
20260505022004 54 219 0.0 1.0 0.00 0.07 0.00 75 1020.9
20260505021503 54 219 0.0 1.0 0.00 0.07 0.00 75 1020.9
20260505021003 54 219 1.0 2.0 0.00 0.07 0.00 74 1020.6
20260505020504 55 207 1.0 3.0 0.00 0.07 0.00 71 1020.7
20260505020004 54 245 0.0 1.0 0.00 0.07 0.00 73 1020.7
20260505015504 54 245 0.0 1.0 0.00 0.07 0.00 72 1020.8
20260505015004 54 256 0.0 1.0 0.00 0.07 0.00 72 1020.8
20260505014004 55 239 1.0 1.0 0.00 0.07 0.00 70 1020.8
20260505013504 54 266 1.0 2.0 0.00 0.07 0.00 73 1020.8
20260505013003 54 339 0.0 0.0 0.00 0.07 0.00 74 1020.8
20260505012504 55 339 1.0 1.0 0.00 0.07 0.00 73 1020.8
20260505012004 55 245 0.0 2.0 0.00 0.07 0.00 73 1020.9
20260505011503 55 218 0.0 3.0 0.00 0.07 0.00 73 1020.9
20260505011004 55 233 1.0 2.0 0.00 0.07 0.00 74 1021.0
20260505010504 54 242 0.0 1.0 0.00 0.07 0.00 74 1021.0
20260505010004 54 242 0.0 2.0 0.00 0.07 0.00 75 1021.2
20260505005504 54 220 1.0 3.0 0.00 0.07 0.00 78 1021.2
20260505005004 55 344 0.0 2.0 0.00 0.07 0.00 78 1021.2
20260505004504 55 245 0.0 1.0 0.00 0.07 0.00 77 1021.3
20260505003504 55 49 1.0 3.0 0.00 0.07 0.00 78 1021.1
20260505003004 55 252 0.0 2.0 0.00 0.07 0.00 79 1021.2
20260505002504 55 296 1.0 2.0 0.00 0.07 0.00 78 1020.9
20260505002005 55 197 1.0 2.0 0.00 0.07 0.00 78 1021.1
20260505001504 56 222 1.0 2.0 0.00 0.07 0.00 79 1021.1
20260505001004 56 239 1.0 1.0 0.00 0.07 0.00 79 1021.0
20260504235504 57 251 1.0 2.0 0.00 0.07 0.00 77 1021.1
20260504235004 57 232 1.0 2.0 0.00 0.07 0.00 75 1021.0
20260504234503 58 214 1.0 2.0 0.00 0.07 0.00 71 1020.9
20260504234004 58 77 2.0 3.0 0.00 0.07 0.00 71 1020.8
20260504233503 58 15 1.0 3.0 0.00 0.07 0.00 69 1020.7
20260504233004 58 244 1.0 2.0 0.00 0.07 0.00 71 1020.7
20260504232504 58 246 2.0 5.0 0.00 0.07 0.00 74 1020.8
20260504231503 59 260 1.0 5.0 0.00 0.07 0.00 73 1020.6
20260504230504 59 243 1.0 3.0 0.00 0.07 0.00 73 1020.7
20260504230004 58 254 1.0 3.0 0.00 0.07 0.00 74 1020.8
20260504225503 59 275 1.0 3.0 0.00 0.07 0.00 74 1020.7
20260504224504 59 246 2.0 3.0 0.00 0.07 0.00 73 1020.8
20260504224004 58 244 2.0 6.0 0.00 0.07 0.00 75 1020.7
20260504223503 58 250 2.0 6.0 0.00 0.07 0.00 77 1020.8
20260504223004 57 236 3.0 6.0 0.00 0.07 0.00 82 1021.0
20260504222504 56 223 2.0 2.0 0.00 0.07 0.00 86 1021.1
20260504222004 56 216 1.0 1.0 0.00 0.07 0.00 86 1021.2
20260504221504 56 216 1.0 1.0 0.00 0.07 0.00 87 1021.0
20260504221004 56 216 1.0 1.0 0.00 0.07 0.00 87 1020.9
20260504220504 56 216 0.0 1.0 0.00 0.07 0.00 87 1020.8
20260504220004 56 216 0.0 1.0 0.00 0.07 0.00 87 1020.8
20260504215504 56 216 0.0 1.0 0.00 0.07 0.07 87 1020.9
20260504215004 57 216 0.0 1.0 0.00 0.07 0.07 87 1020.7
20260504214504 57 216 1.0 1.0 0.00 0.07 0.07 87 1020.9
20260504214004 57 216 0.0 1.0 0.00 0.07 0.07 86 1020.7
20260504213504 57 216 1.0 1.0 0.00 0.07 0.07 86 1020.7
20260504213004 58 216 0.0 2.0 0.00 0.07 0.07 86 1020.7
20260504212004 58 233 1.0 2.0 0.00 0.07 0.07 86 1020.7
20260504211503 58 233 1.0 1.0 0.00 0.07 0.07 86 1020.6
20260504211004 58 233 1.0 1.0 0.00 0.07 0.07 86 1020.6
20260504210503 58 233 1.0 1.0 0.00 0.07 0.07 86 1020.5
20260504210004 58 233 0.0 1.0 0.00 0.07 0.07 86 1020.4
20260504205504 58 233 0.0 1.0 0.00 0.07 0.07 85 1020.3
20260504204505 59 233 0.0 2.0 0.00 0.07 0.07 84 1020.2
20260504203503 59 233 1.0 2.0 0.00 0.07 0.07 83 1020.2
20260504203004 60 245 1.0 2.0 0.00 0.07 0.07 83 1020.0
20260504202504 60 253 0.0 2.0 0.00 0.07 0.07 82 1020.1
20260504202004 60 235 1.0 2.0 0.00 0.07 0.07 82 1019.9
20260504201503 60 243 1.0 3.0 0.00 0.07 0.07 81 1019.8
20260504201006 60 226 2.0 5.0 0.00 0.07 0.07 81 1019.8
20260504200504 61 198 2.0 5.0 0.00 0.07 0.07 80 1019.4
20260504194503 63 249 2.0 5.0 0.00 0.07 0.07 74 1019.0
20260504194004 63 229 2.0 3.0 0.00 0.07 0.07 75 1019.0
20260504193504 63 240 2.0 5.0 0.00 0.07 0.07 74 1019.0
20260504193004 63 226 2.0 5.0 0.00 0.07 0.07 75 1018.9
20260504192504 63 231 1.0 3.0 0.00 0.07 0.07 76 1018.6
20260504192004 63 214 1.0 5.0 0.00 0.07 0.07 76 1018.7
20260504191504 63 236 2.0 5.0 0.00 0.07 0.07 75 1018.5
20260504191004 64 217 1.0 5.0 0.00 0.07 0.07 76 1018.3
20260504190504 64 221 2.0 3.0 0.00 0.07 0.07 74 1018.4
20260504190004 64 216 2.0 6.0 0.00 0.07 0.07 74 1018.4
20260504185503 64 234 2.0 5.0 0.00 0.07 0.07 74 1018.3
20260504185004 64 255 3.0 5.0 0.00 0.07 0.07 74 1018.0
20260504184504 64 240 4.0 7.0 0.00 0.07 0.07 73 1018.1
20260504184004 64 243 2.0 6.0 0.00 0.07 0.07 74 1018.0
20260504183503 65 244 2.0 5.0 0.00 0.07 0.07 74 1018.0
20260504183004 65 214 1.0 3.0 0.00 0.07 0.07 74 1017.6
20260504182503 65 248 1.0 3.0 0.00 0.07 0.07 71 1017.9
20260504182004 65 219 1.0 6.0 0.00 0.07 0.07 70 1017.6
20260504181004 65 224 1.0 2.0 0.00 0.09 0.07 74 1017.5
20260504180503 65 182 1.0 6.0 0.00 0.12 0.07 74 1017.5
20260504180003 66 73 2.0 5.0 0.00 0.13 0.07 73 1017.4
20260504175503 66 204 2.0 6.0 0.00 0.14 0.07 72 1017.5
20260504175004 66 233 1.0 3.0 0.00 0.14 0.07 72 1017.5
20260504174504 66 224 1.0 3.0 0.00 0.14 0.07 73 1017.5
20260504174004 66 232 1.0 3.0 0.00 0.14 0.07 73 1017.5
20260504173504 66 240 1.0 3.0 0.00 0.14 0.07 72 1017.4
20260504173004 66 229 2.0 8.0 0.00 0.14 0.07 72 1017.3
20260504171504 67 252 3.0 6.0 0.00 0.14 0.07 71 1017.0
20260504171004 69 246 2.0 5.0 0.00 0.14 0.07 69 1017.0
20260504170504 68 187 2.0 3.0 0.00 0.14 0.07 71 1017.1
20260504150504 67 23 2.0 5.0 0.00 0.14 0.07 78 1017.0
20260504141004 61 49 2.0 3.0 0.00 0.14 0.07 91 1018.7
20260504100504 62 256 5.0 8.0 0.00 0.07 0.00 80 1020.3
20260504081504 60 204 2.0 7.0 0.00 0.07 0.00 91 1020.5
20260504081004 60 286 2.0 7.0 0.00 0.07 0.00 90 1020.5